Weather History for Hail, Saudi Arabia

Change the Weather History Date:

Wednesday, November 7, 2012

  Actual Average Record
Temperature  
Mean Temperature 72 °F -  
Max Temperature 87 °F 71 °F 89 °F (1999)
Min Temperature 57 °F 47 °F 42 °F (2011)
Cooling Degree Days 7    
Growing Degree Days 22 (Base 50)    
Moisture  
Dew Point 35 °F    
Average Humidity 22    
Maximum Humidity 39    
Minimum Humidity 9    
Precipitation  
Precipitation 0.00 in - - ()
Sea Level Pressure  
Sea Level Pressure 30.11 in    
Wind  
Wind Speed 6 mph ()    
Max Wind Speed 21 mph    
Max Gust Speed -    
Visibility 6.1 miles    
Events      
Averages and records for this station are not official NWS values.
T = Trace of Precipitation, MM = Missing Value Source: Averaged Metar Reports

Daily Weather History Graph

Daily Weather History Graph

Search for Another Location

Airport:

Trip Planner

Search our weather history database for the weather conditions in past years. The results will help you decide how hot, cold, wet, or windy it might be!

Date:

Astronomy

Nov. 07, 2012 Rise Set
Actual Time 6:28 AM AST 5:25 PM AST
Civil Twilight 6:03 AM AST 5:49 PM AST
Nautical Twilight 5:35 AM AST 6:17 PM AST
Astronomical Twilight 5:08 AM AST 6:45 PM AST
Moon No Moon Rise 12:48 PM AST (11/7)
Length of Visible Light 11h 46m
Length of Day
10h 57m
Waning Gibbous, 46% of the Moon is Illuminated
Nov 7
Waning Gibbous
Nov 14
New
Nov 20
First Quarter
Nov 28
Full
Dec 6
Last Quarter

Hourly Weather History & Observations

Time (AST) Temp. Dew Point Humidity Pressure Visibility Wind Dir Wind Speed Gust Speed Precip Events Conditions
12:00 AM 68 °F 32 °F 16%  in 6 mi WSW 4.6 mph - -   Scattered Clouds
12:00 AM 68.0 °F 32.0 °F 26% 30.12 in 6.2 mi WSW 4.6 mph - N/A   Partly Cloudy
1:00 AM 66.2 °F 33.8 °F 30% 30.12 in - Calm Calm - N/A   Clear
2:00 AM 60.8 °F 35.6 °F 39% 30.12 in - Calm Calm - N/A   Clear
5:00 AM 62.6 °F 32.0 °F 32% 30.12 in - South 4.6 mph - N/A   Clear
6:00 AM 62 °F 28 °F 17%  in 6 mi SSE 6.9 mph - -  
6:00 AM 60.8 °F 28.4 °F 29% 30.12 in - SSE 6.9 mph - N/A   Clear
7:00 AM 60.8 °F 24.8 °F 25% 30.12 in - South 6.9 mph - N/A   Clear
8:00 AM 66.2 °F 33.8 °F 30% 30.15 in - SSE 6.9 mph - N/A   Clear
9:00 AM 74 °F 36 °F 15%  in 6 mi SSE 11.5 mph - -  
9:00 AM 73.4 °F 35.6 °F 25% 30.18 in - SSE 11.5 mph - N/A   Clear
10:00 AM 80.6 °F 37.4 °F 21% 30.18 in - SSE 13.8 mph - N/A   Clear
11:00 AM 84.2 °F 39.2 °F 20% 30.15 in - ESE 13.8 mph - N/A   Clear
12:00 PM 87 °F 41 °F 11%  in 6 mi East 16.1 mph - -  
12:00 PM 87.8 °F 41.0 °F 19% 30.12 in - East 16.1 mph - N/A   Clear
1:00 PM 87.8 °F 41.0 °F 19% 30.09 in - SE 20.7 mph - N/A   Clear
2:00 PM 87.8 °F 39.2 °F 18% 30.09 in - East 11.5 mph - N/A   Clear
3:00 PM 87 °F 37 °F 9%  in 6 mi East 9.2 mph - -  
3:00 PM 87.8 °F 37.4 °F 17% 30.06 in - East 9.2 mph - N/A   Clear
4:00 PM 86.0 °F 37.4 °F 18% 30.06 in - ESE 9.2 mph - N/A   Clear
5:00 PM 84.2 °F 35.6 °F 18% 30.06 in - ESE 6.9 mph - N/A   Clear
6:00 PM 79 °F 36 °F 12%  in 6 mi East 6.9 mph - -   Scattered Clouds
6:00 PM 78.8 °F 35.6 °F 21% 30.06 in 6.2 mi East 6.9 mph - N/A   Partly Cloudy
7:00 PM 77.0 °F 33.8 °F 21% 30.09 in 6.2 mi East 4.6 mph - N/A   Scattered Clouds
8:00 PM 71.6 °F 33.8 °F 25% 30.09 in 6.2 mi South 4.6 mph - N/A   Scattered Clouds
9:00 PM 70 °F 34 °F 16%  in 6 mi Calm Calm - -   Partly Cloudy
9:00 PM 69.8 °F 33.8 °F 27% 30.12 in 6.2 mi Calm Calm - N/A   Scattered Clouds
10:00 PM 71.6 °F 30.2 °F 22% 30.12 in 6.2 mi SSW 4.6 mph - N/A   Scattered Clouds
11:00 PM 68.0 °F 33.8 °F 28% 30.09 in - SSW 2.3 mph - N/A   Clear